Weather History for KP53 - April, 2013

Change the Weather History Date:

Tuesday, April 30, 2013

  Actual Average (KISQ) Record (KISQ)
Temperature  
Mean Temperature 58 °F -  
Max Temperature 68 °F 53 °F 72 °F (1952)
Min Temperature 48 °F 33 °F 22 °F (1956)
Degree Days  
Heating Degree Days 7    
Growing Degree Days 8 (Base 50)    
Moisture  
Dew Point 50 °F    
Average Humidity 74    
Maximum Humidity 90    
Minimum Humidity 59    
Precipitation  
Precipitation 0.02 in - - ()
Sea Level Pressure  
Sea Level Pressure 29.74 in    
Wind  
Wind Speed 10 mph (South)    
Max Wind Speed 23 mph    
Max Gust Speed 41 mph    
Averages and records for this station are not official NWS values.
T = Trace of Precipitation, MM = Missing Value Source: NWS Daily Summary

Daily Weather History Graph

Daily Weather History Graph

Search for Another Location

Airport or City:

Trip Planner

Search our weather history database for the weather conditions in past years. The results will help you decide how hot, cold, wet, or windy it might be!

Date:

Astronomy

Apr. 30, 2013 Rise Set
Actual Time 6:33 AM EDT 8:54 PM EDT
Civil Twilight 6:00 AM EDT 9:28 PM EDT
Nautical Twilight 5:18 AM EDT 10:09 PM EDT
Astronomical Twilight 4:32 AM EDT 10:57 PM EDT
Moon 1:21 AM EDT (4/30) 10:58 AM EDT (4/30)
Length of Visible Light 15h 27m
Length of Day
14h 21m
Waning Gibbous, 70% of the Moon is Illuminated
Apr 30
Waning Gibbous
May 2
Last Quarter
May 9
New
May 18
First Quarter
May 25
Full

Hourly Weather History & Observations

Time (EDT) Temp. Dew Point Humidity Pressure Visibility Wind Dir Wind Speed Gust Speed Precip Events Conditions
12:56 AM 48.0 °F 44.1 °F 86% 29.80 in - SSW 6.9 mph - N/A   Unknown
1:56 AM 48.9 °F 45.0 °F 86% 29.79 in - SSW 5.8 mph - N/A   Unknown
2:56 AM 48.9 °F 46.0 °F 90% 29.78 in - SSW 5.8 mph - N/A   Unknown
3:56 AM 50.0 °F 46.9 °F 89% 29.77 in - Variable 5.8 mph - N/A   Unknown
4:56 AM 50.0 °F 46.9 °F 89% 29.75 in - Variable 6.9 mph - N/A   Unknown
5:56 AM 51.1 °F 46.9 °F 86% 29.73 in - South 6.9 mph - N/A   Unknown
6:56 AM 51.1 °F 46.0 °F 83% 29.73 in - South 6.9 mph - N/A   Unknown
7:56 AM 53.1 °F 48.0 °F 83% 29.73 in - South 12.7 mph 21.9 mph N/A   Unknown
8:56 AM 54.0 °F 48.9 °F 83% 29.72 in - South 16.1 mph 25.3 mph N/A   Unknown
9:56 AM 57.0 °F 51.1 °F 81% 29.71 in - South 15.0 mph 21.9 mph N/A   Unknown
10:56 AM 57.0 °F 52.0 °F 83% 29.70 in - South 12.7 mph 21.9 mph 0.02 in   Unknown
11:56 AM 64.0 °F 53.1 °F 67% 29.68 in - South 19.6 mph 31.1 mph N/A   Unknown
12:56 PM 64.0 °F 52.0 °F 65% 29.70 in - South 20.7 mph 31.1 mph N/A   Unknown
1:56 PM 66.0 °F 53.1 °F 63% 29.67 in - South 23.0 mph 29.9 mph N/A   Unknown
2:56 PM 64.9 °F 53.1 °F 65% 29.67 in - South 19.6 mph 36.8 mph N/A   Unknown
3:56 PM 68.0 °F 54.0 °F 61% 29.66 in - South 21.9 mph 36.8 mph N/A   Unknown
4:56 PM 66.9 °F 52.0 °F 59% 29.68 in - SSW 19.6 mph 41.4 mph N/A   Unknown
5:56 PM 66.0 °F 52.0 °F 60% 29.71 in - South 13.8 mph 24.2 mph N/A   Unknown
6:56 PM 66.0 °F 52.0 °F 60% 29.73 in - South 12.7 mph 21.9 mph N/A   Unknown
7:56 PM 64.9 °F 51.1 °F 61% 29.73 in - South 12.7 mph 25.3 mph N/A   Unknown
8:56 PM 63.0 °F 50.0 °F 63% 29.76 in - SSW 11.5 mph - N/A   Unknown
9:56 PM 61.0 °F 48.9 °F 64% 29.81 in - Variable 6.9 mph - N/A   Unknown
10:56 PM 54.0 °F 46.9 °F 77% 29.84 in - East 3.5 mph - N/A   Unknown
11:56 PM 54.0 °F 48.0 °F 80% 29.83 in - Calm Calm - N/A   Unknown